Location: ????
(33.1659°N, 35.6604°E)
Time: 12:09:48
(UTC+00:00)

Cosmos 1140 Rocket - Pass Details

Date: 20 September 2019
Orbit: 745 x 767 km, 74.1° (Epoch: 14 October)

Event Time Altitude Azimuth Distance (km) Brightness Sun altitude
Rises 17:21:41 0° 350° (N) 3,209 7.1 -22.3°
Reaches altitude 10° 17:24:09 10° 356° (N) 2,277 6.2 -22.8°
Enters shadow 17:28:24 43° 46° (NE) 1,044 3.9 -23.7°
